#timestamp,LO_Frequency,Hit,StdDev 
1543633215.5,286047006.0,N
1543633235.3,286047003.0,N
1543633255.1,286047003.5,N
1543633275.9,286047001.5,N
1543633295.7,286047002.1,N
1543633315.6,286046999.8,N
1543633335.4,286047000.4,N
1543633355.2,286047002.3,N
1543633375.1,286047000.4,N
1543633376.0,286047000.4,N
1543633395.8,286047001.9,N
1543633415.6,286047000.1,N
1543633435.5,286047002.3,N
1543633455.3,286046998.2,N
1543633475.2,286047000.4,N
1543633495.9,286047001.0,N
1543633515.7,286047000.5,N
1543633535.6,286047002.7,N
1543633555.4,286047002.5,N
1543633575.2,286046999.9,N
1543633595.1,286047002.5,N
1543633596.0,286047002.5,N
1543633615.8,286047000.2,N
1543633635.7,286046998.2,N
1543633655.5,286046996.6,N
1543633675.3,286046998.4,N
1543633695.2,286046997.0,N
1543633715.9,286046999.3,N
1543633735.7,286046999.2,N
1543633755.6,286046997.7,N
1543633775.4,286046997.7,N
1543633795.3,286046996.6,N
1543633815.1,286046999.2,N
1543633816.0,286046999.2,N
1543633835.8,286046998.9,N
1543633855.7,286047000.5,N
1543633875.5,286046998.6,N
1543633895.3,286046999.6,N
1543633915.2,286046998.6,N
1543633935.0,286046996.7,N
1543633935.9,286046996.7,N
1543633955.8,286047000.5,N
1543633975.6,286047000.9,N
1543633995.4,286047002.6,N
1543634015.3,286047001.7,N
1543634035.1,286047002.0,N
1543634055.9,286047001.8,N
1543634075.7,286047003.8,N
1543634095.5,286047002.9,N
1543634115.4,286047003.2,N
1543634135.2,286047003.8,N
1543634155.0,286047003.7,N
1543634156.0,286047003.7,N
1543634175.8,286047001.6,N
1543634195.6,286047002.2,N
1543634215.5,286047001.0,N
1543634235.3,286047001.2,N
1543634255.1,286047000.4,N
1543634275.9,286047000.7,N
1543634295.7,286046998.1,N
1543634315.5,286047002.7,N
1543634335.4,286047003.8,N
1543634355.2,286047004.1,N
1543634375.1,286047003.5,N
1543634376.0,286047003.5,N
1543634395.8,286047005.8,N
1543634415.6,286047007.4,Y
1543634435.5,286047001.5,P
1543634455.3,286047002.2,P
1543634475.2,286047002.8,P
1543634495.9,286047001.7,Y
1543634515.7,286046999.3,P
1543634535.6,286047000.9,N
1543634555.4,286046999.9,N
1543634575.3,286046999.7,N
1543634595.1,286046999.7,N
1543634596.0,286046999.7,N
1543634615.8,286046999.9,N
1543634635.7,286046998.3,N
1543634655.5,286046998.1,N
1543634675.3,286046999.5,N
1543634695.2,286046997.2,N
1543634715.0,286046995.6,Y
1543634715.9,286046995.6,P
1543634735.8,286046998.4,N
1543634755.6,286046998.7,N
1543634775.4,286046998.8,N
1543634795.3,286047000.5,N
1543634815.1,286046998.2,N
1543634835.9,286047001.1,N
1543634855.7,286047000.9,N
1543634875.5,286047002.0,N
1543634895.4,286047005.9,Y
1543634915.2,286047007.6,P
1543634935.0,286047004.9,N
1543634935.9,286047004.9,N
1543634955.8,286047004.1,N
1543634975.6,286047004.4,N
1543634995.5,286047000.0,N
1543635015.3,286047000.4,N
1543635035.1,286047000.7,N
1543635055.9,286047000.8,N
1543635075.7,286046998.7,N
1543635095.5,286046999.0,N
1543635115.4,286046997.5,N
1543635135.2,286046997.6,N
1543635155.0,286046995.7,N
1543635156.0,286046995.7,N
1543635175.8,286046995.5,N
1543635195.6,286046994.1,N
1543635215.5,286046996.0,N
1543635235.3,286046996.2,N
1543635255.1,286046993.5,N
1543635305.9,286046995.7,E
1543635315.8,286046997.4,N
1543635335.7,286047002.4,P
1543635355.5,286047002.0,N
1543635375.3,286047003.4,N
1543635395.2,286047005.6,N
1543635415.0,286047004.8,N
1543635415.9,286047004.8,N
1543635435.8,286047004.5,N
1543635455.6,286047006.2,N
1543635475.4,286047008.5,Y
1543635495.3,286047004.0,P
1543635515.1,286047004.0,P
1543635535.8,286047001.3,P
1543635555.7,286047001.8,N
1543635575.5,286047001.8,N
1543635595.4,286047004.4,Y
1543635615.2,286046998.3,P
1543635635.0,286046998.6,N
1543635635.9,286046998.6,N
1543635655.8,286046998.7,N
1543635675.6,286046998.8,N
1543635695.4,286047000.7,N
1543635715.3,286047001.8,N
1543635735.1,286046999.7,N
1543635755.9,286047001.8,N
1543635775.7,286047000.6,N
1543635795.5,286047001.0,N
1543635815.4,286047000.5,N
1543635835.2,286046999.9,N
1543635855.0,286047000.2,N
1543635855.9,286047000.2,N
1543635875.8,286047001.0,N
1543635895.6,286047001.1,N
1543635915.5,286047001.1,N
1543635935.3,286046998.1,N
1543635955.1,286047000.6,N
1543635975.9,286047000.6,N
1543635995.7,286047000.1,N
1543636015.5,286047002.0,N
1543636035.4,286047000.0,N
1543636055.2,286046998.1,N
1543636075.1,286046998.1,N
1543636076.0,286046998.1,N
1543636095.8,286046999.4,N
1543636115.6,286046998.5,N
1543636135.5,286046999.1,N
1543636155.3,286046999.2,N
1543636175.1,286046999.4,N
1543636195.9,286046996.9,N
1543636215.7,286046996.8,N
1543636235.6,286046997.9,N
1543636255.4,286046997.6,N
1543636275.2,286046995.4,Y
1543636295.1,286046998.0,P
1543636296.0,286046998.0,N
1543636315.8,286046995.3,P
1543636335.7,286046993.4,Y
1543636355.5,286046997.4,P
1543636375.3,286046997.2,P
1543636395.2,286046999.5,N
1543636415.9,286046996.9,Y
1543636435.7,286047001.2,P
1543636455.6,286046998.1,N
1543636475.4,286047000.6,N
1543636495.3,286047000.8,N
1543636515.1,286046998.8,N
1543636516.0,286046998.8,N
1543636535.8,286047000.9,N
1543636555.7,286047000.7,N
1543636575.5,286047002.8,N
1543636595.3,286047000.1,N
1543636615.2,286047000.3,N
1543636635.0,286046998.6,N
1543636635.9,286046998.6,N
1543636655.8,286046999.7,N
1543636675.6,286046999.7,N
1543636695.4,286047004.2,Y
1543636715.3,286047007.2,P
1543636735.1,286047002.9,N
1543636755.8,286047003.4,N
1543636775.7,286047002.2,N
1543636795.5,286047002.4,N
